Regional Weather Roundup
Issued by NWS

Home | Current Version | Previous Version | Graphics & Text | Print | Product List | Glossary On
Versions: 1 2 3 4 5 6 7 8 9 10 11 12 13 14 15 16 17 18 19 20 21 22 23 24 25 26 27 28 29 30 31 32 33 34 35 36 37 38 39 40 41 42 43 44 45 46 47 48 49 50
000
ASUS43 KLMK 041610
RWRKY
KENTUCKY REGIONAL WEATHER ROUNDUP
NATIONAL WEATHER SERVICE LOUISVILLE KY
1200 PM EDT WED MAY 04 2016

NOTE "FAIR" INDICATES FEW OR NO CLOUDS BELOW 12,000 FEET
WITH NO SIGNIFICANT WEATHER AND/OR OBSTRUCTIONS TO VISIBILITY.

KYZ001>023-026-027-061>063-070>075-041700-
WESTERN AND SOUTH CENTRAL KENTUCKY

CITY           SKY/WX    TMP DP  RH WIND       PRES   REMARKS
PADUCAH        CLOUDY    60  50  69 W9        29.75S
HENDERSON      PTSUNNY   57  50  77 SW13      29.72S
OWENSBORO      LGT RAIN  55  53  93 SW8       29.74R FOG
HOPKINSVILLE   DRIZZLE   62  48  60 SW13      29.74F
BOWLING GREEN  LGT RAIN  59  51  75 W6        29.77R
GLASGOW        CLOUDY    62  46  55 SW6       29.75F
$$

KYZ024-025-028>034-038-045-046-053-041700-
NORTH CENTRAL KENTUCKY

CITY           SKY/WX    TMP DP  RH WIND       PRES   REMARKS
LOUISVILLE/SDF LGT RAIN  53  49  86 SW12      29.73S FOG
LOUISVILLE/LOU RAIN      53  48  83 W8        29.74R
FORT KNOX      RAIN      52  49  90 S6        29.71F FOG
$$

KYZ035>037-039>044-047>052-055>060-089>105-041700-
NORTHEAST KENTUCKY

CITY           SKY/WX    TMP DP  RH WIND       PRES   REMARKS
LEXINGTON      CLOUDY    60  41  49 W9        29.72F
COVINGTON      LGT RAIN  52  47  83 SW6       29.70F
FRANKFORT      CLOUDY    59  44  57 VRB7      29.71S
$$

KYZ054-064>069-076>088-106>120-041700-
SOUTHEAST KENTUCKY

CITY           SKY/WX    TMP DP  RH WIND       PRES   REMARKS
JACKSON        PTSUNNY   60  44  55 CALM      29.74F
LONDON         MOSUNNY   62  38  40 SW13G18   29.76F
SOMERSET       MOSUNNY   59  41  51 SW7G17    29.77F
MIDDLESBORO    PTSUNNY   61  42  49 W6        29.78F
MONTICELLO     SUNNY     63  48  58 S6G21     29.78F
$$





USA.gov is the U.S. government's official web portal to all federal, state and local government web resources and services.